Location: Alulod
(14.2076°N, 120.8898°E)
Time: 03:37:00
(UTC+00:00)

ATLAS 2AS CENTAUR R/B - Pass Details

Date: 13 December 2025
Orbit: 1049 x 1162 km, 63.7° (Epoch: 21 January)

Event Time Altitude Azimuth Distance (km) Brightness Sun altitude
Rises 20:07:55 0° 200° (SSW) 3,999 5.7 -28.9°
Reaches altitude 10° 20:10:39 10° 199° (SSW) 3,028 5.1 -28.3°
Maximum altitude 20:17:52 78° 113° (ESE) 1,145 2.8 -26.7°
Drops below altitude 10° 20:24:54 10° 28° (NNE) 2,952 5.1 -25.0°
Sets 20:27:31 0° 27° (NNE) 3,893 5.7 -24.4°
